Cumberland, WV

1:25 PM EDT on April 30, 2017 (GMT -0400)
Greater Cumberland Regional

Weather History for KCBE - August, 2013

Change the Weather History Date:

Saturday, August 24, 2013

  Actual Average (KMRB) Record (KMRB)
Temperature  
Mean Temperature 70 °F -  
Max Temperature 80 °F 83 °F 104 °F (1936)
Min Temperature 60 °F 60 °F 44 °F (1952)
Cooling Degree Days 5    
Growing Degree Days 20 (Base 50)    
Moisture  
Dew Point 58 °F    
Average Humidity 75    
Maximum Humidity 100    
Minimum Humidity 34    
Precipitation  
Precipitation 0.00 in - - ()
Sea Level Pressure  
Sea Level Pressure 30.32 in    
Wind  
Wind Speed 1 mph (SE)    
Max Wind Speed 6 mph    
Max Gust Speed -    
Visibility 7 miles    
Events      
Averages and records for this station are not official NWS values.
T = Trace of Precipitation, MM = Missing Value Source: NWS Daily Summary

Daily Weather History Graph

Daily Weather History Graph

Search for Another Location

Airport or City:

Trip Planner

Search our weather history database for the weather conditions in past years. The results will help you decide how hot, cold, wet, or windy it might be!

Date:

Astronomy

Aug. 24, 2013 Rise Set
Actual Time 6:35 AM EDT 7:57 PM EDT
Civil Twilight 6:07 AM EDT 8:25 PM EDT
Nautical Twilight 5:34 AM EDT 8:59 PM EDT
Astronomical Twilight 4:58 AM EDT 9:34 PM EDT
Moon 9:52 PM EDT (8/24) 10:32 AM EDT (8/24)
Length of Visible Light 14h 18m
Length of Day
13h 21m
Waning Gibbous, 84% of the Moon is Illuminated
Aug 24
Waning Gibbous
Aug 28
Last Quarter
Sep 5
New
Sep 12
First Quarter
Sep 19
Full

Hourly Weather History & Observations

Time (EDT) Temp. Heat Index Dew Point Humidity Pressure Visibility Wind Dir Wind Speed Gust Speed Precip Events Conditions
12:17 AM 60.8 °F - 60.8 °F 100% 30.21 in 7.0 mi Calm Calm - N/A   Clear
12:37 AM 60.8 °F - 60.8 °F 100% 30.22 in 5.0 mi Calm Calm - N/A   Scattered Clouds
12:58 AM 60.8 °F - 60.8 °F 100% 30.22 in 7.0 mi Calm Calm - N/A   Overcast
1:18 AM 60.8 °F - 60.8 °F 100% 30.22 in 3.0 mi Calm Calm - N/A   Overcast
1:38 AM 60.8 °F - 59.0 °F 94% 30.22 in 0.5 mi Calm Calm - N/A   Overcast
1:58 AM 60.8 °F - 59.0 °F 94% 30.23 in 0.2 mi Calm Calm - N/A   Overcast
2:18 AM 60.8 °F - 60.8 °F 100% 30.23 in 0.2 mi Calm Calm - N/A   Overcast
2:38 AM 60.8 °F - 60.8 °F 100% 30.24 in 5.0 mi Calm Calm - N/A   Overcast
2:58 AM 60.8 °F - 60.8 °F 100% 30.24 in 3.0 mi Calm Calm - N/A   Overcast
3:18 AM 60.8 °F - 60.8 °F 100% 30.24 in 1.0 mi Calm Calm - N/A   Overcast
3:38 AM 60.8 °F - 59.0 °F 94% 30.25 in 0.2 mi ENE 3.5 mph - N/A   Overcast
3:58 AM 60.8 °F - 59.0 °F 94% 30.25 in 0.2 mi Calm Calm - N/A   Overcast
4:18 AM 60.8 °F - 59.0 °F 94% 30.26 in 0.2 mi Calm Calm - N/A   Overcast
4:38 AM 60.8 °F - 59.0 °F 94% 30.26 in 0.2 mi Calm Calm - N/A   Overcast
4:58 AM 60.8 °F - 59.0 °F 94% 30.27 in 0.2 mi Calm Calm - N/A   Overcast
5:18 AM 60.8 °F - 59.0 °F 94% 30.27 in 0.2 mi Calm Calm - N/A   Overcast
5:38 AM 60.8 °F - 59.0 °F 94% 30.28 in 0.2 mi Calm Calm - N/A   Overcast
5:58 AM 60.8 °F - 60.8 °F 100% 30.29 in 0.2 mi Calm Calm - N/A   Overcast
6:18 AM 60.8 °F - 60.8 °F 100% 30.29 in 1.2 mi Calm Calm - N/A   Overcast
6:38 AM 60.8 °F - 60.8 °F 100% 30.30 in 4.0 mi Calm Calm - N/A   Overcast
6:58 AM 60.8 °F - 60.8 °F 100% 30.31 in 5.0 mi Calm Calm - N/A   Overcast
7:18 AM 60.8 °F - 60.8 °F 100% 30.32 in 4.0 mi Calm Calm - N/A   Overcast
7:38 AM 60.8 °F - 60.8 °F 100% 30.32 in 5.0 mi Calm Calm - N/A   Overcast
7:58 AM 60.8 °F - 60.8 °F 100% 30.33 in 7.0 mi Calm Calm - N/A   Overcast
8:18 AM 60.8 °F - 60.8 °F 100% 30.34 in 7.0 mi Calm Calm - N/A   Overcast
8:38 AM 60.8 °F - 60.8 °F 100% 30.34 in 10.0 mi Calm Calm - N/A   Overcast
8:58 AM 60.8 °F - 60.8 °F 100% 30.35 in 10.0 mi Calm Calm - N/A   Overcast
9:19 AM 62.6 °F - 60.8 °F 94% 30.35 in 10.0 mi Calm Calm - N/A   Overcast
9:39 AM 62.6 °F - 62.6 °F 100% 30.36 in 10.0 mi Calm Calm - N/A   Scattered Clouds
9:59 AM 64.4 °F - 62.6 °F 94% 30.37 in 10.0 mi Calm Calm - N/A   Clear
10:19 AM 68.0 °F - 62.6 °F 83% 30.37 in 10.0 mi Calm Calm - N/A   Clear
10:39 AM 69.8 °F - 59.0 °F 68% 30.36 in 10.0 mi Calm Calm - N/A   Clear
10:59 AM 69.8 °F - 59.0 °F 68% 30.36 in 10.0 mi Calm Calm - N/A   Clear
11:19 AM 71.6 °F - 59.0 °F 64% 30.36 in 10.0 mi ESE 3.5 mph - N/A   Clear
11:39 AM 71.6 °F - 59.0 °F 64% 30.36 in 10.0 mi South 3.5 mph - N/A   Clear
11:59 AM 71.6 °F - 59.0 °F 64% 30.35 in 10.0 mi SW 4.6 mph - N/A   Clear
12:19 PM 73.4 °F - 57.2 °F 57% 30.35 in 10.0 mi SSW 3.5 mph - N/A   Clear
12:39 PM 73.4 °F - 55.4 °F 53% 30.35 in 10.0 mi SE 3.5 mph - N/A   Clear
12:59 PM 73.4 °F - 55.4 °F 53% 30.34 in 10.0 mi Calm Calm - N/A   Clear
1:19 PM 75.2 °F - 55.4 °F 50% 30.35 in 10.0 mi South 4.6 mph - N/A   Clear
1:39 PM 77.0 °F - 57.2 °F 50% 30.34 in 10.0 mi Calm Calm - N/A   Clear
1:59 PM 77.0 °F - 59.0 °F 54% 30.34 in 10.0 mi SW 3.5 mph - N/A   Clear
2:19 PM 77.0 °F - 59.0 °F 54% 30.34 in 10.0 mi South 4.6 mph - N/A   Clear
2:39 PM 77.0 °F - 59.0 °F 54% 30.33 in 10.0 mi SSE 5.8 mph - N/A   Clear
2:59 PM 78.8 °F - 59.0 °F 51% 30.32 in 10.0 mi ESE 4.6 mph - N/A   Clear
3:19 PM 78.8 °F - 59.0 °F 51% 30.32 in 10.0 mi East 4.6 mph - N/A   Clear
3:39 PM 78.8 °F - 55.4 °F 44% 30.32 in 10.0 mi Calm Calm - N/A   Clear
3:59 PM 78.8 °F - 57.2 °F 47% 30.32 in 10.0 mi Calm Calm - N/A   Clear
4:19 PM 80.6 °F 80.5 °F 55.4 °F 42% 30.32 in 10.0 mi ESE 5.8 mph - N/A   Clear
4:39 PM 80.6 °F 80.3 °F 53.6 °F 39% 30.32 in 10.0 mi Calm Calm - N/A   Clear
4:59 PM 80.6 °F - 51.8 °F 37% 30.32 in 10.0 mi Calm Calm - N/A   Clear
5:19 PM 80.6 °F - 50.0 °F 34% 30.32 in 10.0 mi SE 5.8 mph - N/A   Clear
5:39 PM 80.6 °F - 51.8 °F 37% 30.32 in 10.0 mi SE 4.6 mph - N/A   Clear
5:59 PM 78.8 °F - 51.8 °F 39% 30.32 in 10.0 mi SE 4.6 mph - N/A   Clear
6:19 PM 78.8 °F - 51.8 °F 39% 30.32 in 10.0 mi SSE 3.5 mph - N/A   Clear
6:39 PM 78.8 °F - 51.8 °F 39% 30.32 in 10.0 mi SE 4.6 mph - N/A   Clear
7:00 PM 77.0 °F - 53.6 °F 44% 30.32 in 10.0 mi SE 3.5 mph - N/A   Clear
7:20 PM 77.0 °F - 55.4 °F 47% 30.32 in 10.0 mi Calm Calm - N/A   Clear
7:40 PM 73.4 °F - 55.4 °F 53% 30.32 in 10.0 mi Calm Calm - N/A   Clear
8:00 PM 71.6 °F - 55.4 °F 57% 30.33 in 10.0 mi Calm Calm - N/A   Scattered Clouds
8:20 PM 69.8 °F - 57.2 °F 64% 30.34 in 10.0 mi Calm Calm - N/A   Clear
8:40 PM 69.8 °F - 59.0 °F 68% 30.35 in 10.0 mi Calm Calm - N/A   Clear
9:00 PM 69.8 °F - 59.0 °F 68% 30.36 in 10.0 mi Calm Calm - N/A   Clear
9:20 PM 68.0 °F - 59.0 °F 73% 30.37 in 10.0 mi North 3.5 mph - N/A   Clear
9:40 PM 66.2 °F - 59.0 °F 78% 30.37 in 10.0 mi North 4.6 mph - N/A   Clear
10:00 PM 64.4 °F - 59.0 °F 83% 30.37 in 10.0 mi Calm Calm - N/A   Clear
10:20 PM 64.4 °F - 59.0 °F 83% 30.36 in 10.0 mi Calm Calm - N/A   Clear
10:40 PM 62.6 °F - 59.0 °F 88% 30.37 in 10.0 mi Calm Calm - N/A   Clear
11:00 PM 62.6 °F - 59.0 °F 88% 30.38 in 10.0 mi Calm Calm - N/A   Clear
11:20 PM 62.6 °F - 59.0 °F 88% 30.39 in 10.0 mi Calm Calm - N/A   Clear
11:40 PM 60.8 °F - 59.0 °F 94% 30.39 in 10.0 mi Calm Calm - N/A   Clear